Wetbulb
47.14 47.17 47.69 47.89 48.08 48.78 47.15 42.15 33.25 46.86 47.79 35.65 33.58 30.10 31.81 35.47 33.82 36.54 33.84 34.79 32.85 31.39 32.03 30.73 32.27 32.82 37.27 40.98 41.41 37.64 38.18 33.70 29.42 34.08 39.79 40.81 39.91 37.34 38.63 31.89 30.82 31.14 29.17 32.59
46.87 47.15 47.38 47.74 48.01 48.63 44.69 38.31 37.90 46.64 44.87 30.33 30.20 33.41 33.20 33.65 32.50 33.25 33.62 32.84 34.48 34.71 31.00 28.15 32.75 34.59 41.88 43.65 42.11 39.39 41.71 33.34 26.57 30.84 36.59 38.37 37.13 38.00 39.80 39.82 36.55 31.24 28.84 32.39
46.96 47.15 47.25 47.51 47.69 48.49 45.40 34.20 30.32 37.75 41.06 38.53 34.08 31.26 30.93 31.02 34.44 32.98 35.05 34.65 34.64 32.46 30.97 33.09 30.79 32.35 37.64 41.74 42.10 45.22 43.57 37.91 31.22 27.47 30.56 34.90 33.98 37.46 39.15 39.39 30.73 31.18 32.23 36.07
46.95 47.46 47.47 47.60 47.65 48.02 45.31 34.72 31.37 34.85 29.67 33.52 33.66 33.66 32.30 30.67 29.64 33.60 34.88 31.27 32.23 30.72 27.67 28.81 28.65 32.93 34.81 39.94 43.02 43.10 41.30 33.55 34.13 35.98 36.60 37.56 37.71 37.62 38.96 36.70 35.35 32.95 34.95 36.93
47.46 47.52 47.73 47.92 48.16 48.29 42.37 30.88 33.04 37.30 32.65 35.74 34.12 33.70 31.41 31.27 32.05 32.34 30.14 29.65 32.48 32.29 28.89 30.09 28.43 32.36 33.55 33.55 41.24 40.65 41.56 33.96 34.57 32.70 36.41 36.91 35.28 37.34 37.53 37.18 37.28 36.81 36.36 36.58
46.94 46.87 47.38 47.98 48.21 47.76 41.06 39.61 39.41 38.24 34.64 32.67 32.73 31.93 32.47 32.67 34.95 35.01 35.89 33.67 32.31 31.09 32.87 35.03 35.42 35.94 35.72 35.68 33.89 36.97 38.62 34.40 31.64 28.59 35.26 35.59 30.39 35.35 36.59 37.44 39.07 38.35 33.99 38.38
46.58 46.94 46.95 47.11 47.97 47.74 43.52 41.53 40.05 36.06 31.12 32.72 32.80 34.16 34.55 33.78 34.57 32.63 35.45 36.21 33.24 36.09 39.24 39.03 37.27 35.98 35.69 36.28 35.93 37.72 36.44 34.62 32.84 28.46 30.73 23.05 34.59 41.23 42.11 39.92 40.64 40.98 40.73 41.84
46.50 46.45 46.55 46.76 47.11 46.66 44.58 44.32 40.34 36.43 31.19 34.58 33.94 34.53 33.96 35.01 36.44 34.85 35.05 37.13 38.69 40.46 35.38 32.03 29.20 28.13 31.09 33.59 36.66 38.21 39.90 37.20 31.79 29.86 28.63 31.54 34.79 39.35 39.97 37.84 37.20 42.10 41.74 43.63
46.29 46.28 46.24 46.48 46.62 46.81 44.05 42.16 44.26 40.78 33.78 32.89 37.03 34.66 35.62 32.27 32.10 33.34 35.04 39.90 41.34 38.74 33.58 30.73 25.90 23.38 27.75 29.25 34.40 39.50 38.35 39.20 34.81 31.20 28.43 24.84 33.09 40.09 44.14 42.94 32.30 43.57 44.07 42.71
46.35 46.52 46.50 46.50 46.55 47.11 44.38 41.92 42.71 39.79 34.72 37.64 38.54 35.06 34.73 36.06 34.26 31.65 34.03 35.48 35.46 37.85 31.34 28.44 26.57 25.24 31.47 27.28 29.61 31.12 33.87 33.24 32.74 31.17 28.73 32.73 39.68 42.05 44.13 32.22 34.35 44.51 45.85 44.84
46.61 46.67 46.61 46.77 46.68 46.85 45.01 42.28 43.83 39.41 34.72 38.47 40.77 39.84 36.39 35.94 35.42 30.81 34.38 34.36 33.21 32.29 29.32 29.37 28.33 23.67 28.32 28.90 31.42 31.73 30.85 28.99 29.16 31.91 29.59 27.44 42.62 43.56 37.80 40.27 43.53 44.93 45.54 45.80
46.72 46.70 46.79 46.86 46.91 46.94 46.54 40.07 44.90 43.98 39.64 38.94 43.56 43.09 42.94 41.87 40.85 37.54 37.50 35.32 33.63 33.63 29.52 29.03 28.09 24.76 22.98 28.11 24.08 34.40 28.80 32.98 30.68 32.59 32.45 40.24 42.76 44.06 45.89 46.66 45.11 45.31 45.78 46.25
46.52 46.84 47.09 46.99 47.18 47.03 46.31 42.03 43.37 41.97 38.15 36.64 37.91 37.22 42.42 44.76 44.10 44.17 35.19 34.90 38.47 35.94 37.84 32.18 31.13 26.54 29.31 24.12 26.15 28.67 32.62 37.62 33.73 34.83 37.82 40.35 42.80 45.19 47.35 47.52 46.68 47.44 47.40 47.06
46.58 46.68 46.84 46.97 46.99 47.13 46.51 41.43 43.37 41.71 38.19 31.08 32.24 42.74 40.20 44.65 44.40 43.48 42.51 41.48 43.22 41.00 39.40 33.26 29.73 27.70 33.83 27.45 30.67 29.42 32.33 35.07 34.76 34.89 38.11 40.30 42.50 44.71 46.35 47.23 47.31 46.92 46.41 46.06
46.42 46.49 46.72 47.02 47.07 47.11 45.15 44.16 43.52 41.35 36.05 28.19 30.49 41.91 44.00 45.83 43.59 42.51 43.47 43.41 41.28 37.96 35.45 29.59 29.22 32.76 34.94 32.78 32.88 30.50 35.56 34.47 32.01 30.55 38.35 38.29 39.68 43.61 45.54 44.93 45.43 47.37 45.81 45.95
45.90 46.22 46.52 46.58 46.72 45.54 42.40 37.13 42.68 44.20 40.67 34.53 29.93 41.87 41.20 43.05 44.36 42.03 41.44 41.68 40.62 39.82 35.72 32.70 35.49 38.88 35.15 26.63 27.84 35.01 36.80 37.71 38.52 37.16 40.06 39.24 40.59 41.50 44.09 44.91 44.79 43.71 41.61 41.62
46.06 46.31 46.33 46.15 45.79 43.59 38.94 36.88 40.41 44.96 42.40 35.37 31.97 34.08 41.30 43.06 43.68 42.39 42.35 43.58 41.69 41.00 38.47 33.89 34.45 35.94 36.35 28.61 26.27 35.23 36.14 35.65 36.37 38.71 37.95 38.15 39.18 38.75 42.25 43.27 41.62 38.82 36.51 34.82
46.01 46.08 45.49 45.47 45.82 45.20 41.61 44.17 44.74 43.58 38.78 37.06 30.30 32.90 36.33 42.55 35.99 35.41 41.25 37.89 38.91 39.14 38.33 38.20 35.03 36.67 35.75 31.78 31.99 33.24 33.32 33.12 35.93 35.35 36.75 38.46 38.11 36.88 36.92 37.63 37.11 31.87 29.65 29.05
45.69 45.55 45.13 43.51 41.88 38.76 41.06 45.45 45.34 44.90 39.35 32.05 30.82 30.77 30.09 38.67 34.61 36.15 34.87 34.34 30.76 33.54 34.08 35.67 36.23 33.79 26.86 27.03 29.10 29.71 30.36 30.39 31.72 33.91 36.49 34.86 33.04 31.53 31.58 33.27 32.35 29.69 28.44 26.42
44.72 40.95 37.52 33.21 38.84 46.17 45.58 41.86 37.82 37.52 37.87 33.33 31.62 32.80 32.57 35.00 34.23 32.51 27.84 30.24 28.99 27.86 31.47 36.36 31.41 25.31 28.43 27.66 29.40 29.06 29.56 30.47 32.31 31.74 31.62 30.74 32.16 28.55 26.68 26.24 27.08 26.54 25.40 24.93
41.16 35.50 32.72 42.21 45.20 41.61 37.31 30.98 30.69 30.99 29.50 33.18 33.51 33.49 32.88 35.31 30.48 31.32 31.40 25.74 26.73 21.66 27.59 30.97 26.55 21.10 24.02 27.39 27.24 27.94 28.55 29.01 29.32 31.34 31.09 30.56 29.51 28.35 26.29 24.71 24.65 24.01 23.25 22.23
40.81 40.37 41.45 37.03 31.97 28.69 27.25 23.20 29.35 29.65 28.79 31.13 32.45 31.34 31.99 31.29 36.38 31.59 33.28 28.84 29.34 22.36 31.52 23.89 16.87 21.66 25.28 25.51 25.27 24.57 25.37 25.96 25.56 26.59 26.66 27.20 27.34 27.23 25.42 23.87 22.66 22.04 21.44 20.12
37.96 33.42 26.87 26.87 20.92 14.51 18.05 15.33 22.67 23.20 26.97 27.97 31.25 29.47 29.83 30.53 34.28 32.26 32.00 29.29 26.65 29.05 20.33 16.16 18.99 23.38 24.06 24.13 23.86 23.29 23.89 23.87 23.67 23.04 23.39 23.32 23.33 24.36 23.04 21.38 21.64 21.12 20.02 19.86
26.69 22.05 13.05 13.66 10.85 16.53 17.63 20.25 22.77 26.72 27.14 27.23 29.85 30.96 30.97 31.39 30.59 30.28 26.53 23.62 23.91 15.10 9.79 11.31 20.01 22.59 22.98 22.93 22.95 21.94 21.86 22.15 21.60 21.21 21.29 20.77 20.37 19.54 20.03 19.80 20.21 19.12 17.86 18.43
19.84 18.92 10.52 13.68 19.34 19.98 20.95 23.52 25.42 25.72 27.23 28.40 31.31 32.27 30.87 25.78 23.14 21.98 20.35 13.48 10.38 13.94 10.90 16.21 20.49 22.26 22.47 22.09 21.96 21.34 21.07 20.35 19.97 20.23 19.66 19.11 19.20 18.86 18.53 19.48 19.43 19.06 18.06 16.62
19.97 16.87 13.21 15.48 14.35 15.04 16.79 19.11 20.22 24.31 23.61 28.36 29.83 26.78 21.60 18.71 17.54 13.65 11.25 12.36 8.75 10.31 15.73 18.60 21.04 19.70 20.52 21.10 21.76 21.86 21.84 20.92 20.22 20.20 19.74 19.14 18.05 17.35 17.32 17.93 17.55 17.06 16.43 14.89
18.80 14.05 17.37 12.26 11.73 10.06 14.39 18.36 18.80 22.83 21.65 20.06 22.10 12.30 11.99 20.38 11.59 10.31 13.17 7.10 12.91 15.24 16.01 17.63 18.42 18.09 18.14 18.74 19.20 19.13 20.06 20.58 20.20 19.97 19.52 19.04 19.60 19.11 17.66 15.44 16.78 16.90 16.41 15.40
MSLP
1011.01 1011.20 1011.48 1011.85 1012.25 1012.67 1013.12 1012.88 1012.31 1011.61 1012.75 1013.61 1012.90 1012.23 1012.57 1012.37 1011.94 1011.67 1011.87 1011.62 1011.43 1011.02 1010.42 1009.76 1009.28 1008.62 1007.81 1007.17 1006.72 1006.54 1006.13 1005.39 1004.80 1003.69 1002.39 1002.16 1002.21 1002.50 1003.40 1004.17 1005.26 1005.44 1004.78 1002.73
1009.55 1009.77 1010.10 1010.54 1011.03 1011.54 1011.98 1011.56 1011.39 1011.55 1011.09 1011.26 1011.33 1011.83 1012.02 1012.32 1011.97 1011.80 1011.79 1011.66 1011.44 1011.18 1011.06 1010.66 1009.48 1008.66 1007.73 1007.32 1007.39 1007.71 1007.60 1006.28 1005.46 1004.40 1002.97 1002.00 1001.88 1002.23 1002.61 1003.32 1004.25 1004.53 1004.01 1002.40
1007.86 1008.12 1008.48 1008.99 1009.55 1010.16 1011.12 1011.20 1011.02 1010.59 1009.79 1009.64 1010.27 1011.07 1011.12 1011.49 1011.63 1011.89 1011.93 1011.80 1011.64 1011.59 1011.34 1010.67 1009.94 1009.26 1008.19 1007.73 1007.73 1007.71 1008.37 1006.97 1005.58 1003.91 1003.15 1002.33 1002.00 1001.84 1002.24 1002.68 1003.54 1003.60 1002.60 1001.84
1006.18 1006.49 1006.95 1007.55 1008.19 1008.99 1010.02 1009.84 1009.14 1008.42 1008.59 1008.43 1009.13 1009.89 1009.82 1010.52 1010.90 1011.31 1011.43 1011.83 1011.78 1011.80 1011.63 1010.99 1010.30 1009.55 1008.70 1007.92 1007.66 1007.72 1008.55 1007.28 1005.85 1004.12 1003.04 1002.31 1001.94 1001.48 1001.71 1002.14 1002.22 1002.34 1001.93 1001.20
1004.41 1004.79 1005.26 1005.99 1006.81 1007.70 1008.37 1008.23 1008.22 1007.96 1007.76 1007.98 1008.72 1008.90 1008.60 1009.21 1010.15 1010.41 1010.80 1010.98 1010.97 1011.22 1011.29 1011.03 1010.29 1009.63 1009.30 1008.58 1007.51 1007.81 1008.35 1007.79 1005.91 1003.85 1002.68 1002.10 1001.91 1001.33 1001.20 1001.41 1001.73 1001.26 1000.74 1000.39
1003.23 1003.54 1003.89 1004.40 1005.29 1006.35 1006.23 1007.11 1007.30 1007.20 1006.82 1007.19 1007.77 1007.22 1007.83 1008.52 1009.42 1009.64 1009.64 1010.15 1010.53 1010.53 1009.66 1009.80 1009.82 1009.86 1009.39 1009.39 1009.30 1008.75 1008.42 1007.48 1005.94 1004.09 1002.61 1002.27 1001.71 1000.30 1000.57 1000.49 1000.64 1000.45 1000.48 1000.31
1002.28 1002.60 1002.95 1003.37 1003.78 1004.52 1005.19 1005.69 1006.38 1006.61 1006.02 1006.11 1005.90 1006.78 1007.76 1008.35 1008.53 1009.05 1009.16 1009.51 1009.60 1008.52 1009.42 1009.77 1009.66 1009.47 1008.84 1008.20 1007.76 1007.95 1007.70 1007.39 1006.93 1005.12 1003.23 1002.78 1000.90 999.70 999.74 1000.09 1000.09 999.97 999.69 999.84
1001.12 1001.51 1001.94 1002.41 1003.03 1003.75 1003.84 1004.50 1005.01 1005.40 1005.28 1005.45 1005.64 1006.29 1006.96 1007.81 1008.33 1008.50 1008.66 1008.41 1008.40 1008.93 1009.71 1010.01 1009.90 1009.07 1008.39 1007.27 1006.75 1006.52 1007.41 1007.75 1006.70 1005.87 1004.58 1002.93 1001.18 1000.23 999.83 999.70 999.47 999.23 999.33 999.27
999.68 1000.16 1000.77 1001.40 1002.04 1002.79 1003.84 1004.40 1004.56 1004.60 1004.85 1004.21 1005.20 1005.72 1006.35 1006.87 1007.50 1008.15 1007.73 1008.17 1008.55 1009.18 1009.86 1010.12 1009.79 1009.12 1007.94 1006.83 1005.83 1005.19 1005.84 1006.58 1006.95 1006.57 1004.92 1003.73 1001.32 999.78 999.32 999.38 999.72 998.87 998.68 998.83
997.95 998.52 999.21 1000.04 1000.94 1001.84 1002.83 1003.35 1004.45 1004.75 1004.11 1003.76 1004.31 1004.59 1005.04 1005.79 1006.57 1007.04 1007.55 1008.06 1008.78 1009.00 1009.54 1009.96 1009.76 1009.05 1008.02 1006.92 1005.78 1005.51 1005.79 1006.11 1006.11 1005.57 1004.54 1002.87 1000.93 999.79 999.51 999.87 999.42 998.66 998.44 998.33
995.98 996.72 997.55 998.50 999.59 1000.69 1001.87 1002.39 1003.39 1004.45 1004.30 1003.49 1003.31 1003.39 1003.83 1004.56 1004.89 1005.51 1006.53 1007.80 1008.27 1008.96 1009.44 1009.51 1009.24 1008.87 1007.96 1007.22 1006.00 1005.34 1005.23 1005.35 1005.50 1005.46 1004.51 1003.05 1000.52 1000.05 1000.18 999.98 998.76 998.50 998.59 998.80
994.12 994.93 995.79 996.86 998.13 999.38 1000.93 1001.75 1002.52 1003.73 1004.17 1003.84 1003.62 1003.49 1003.06 1002.17 1002.74 1004.02 1005.19 1005.37 1006.15 1006.83 1007.67 1008.30 1008.41 1008.52 1007.95 1007.11 1006.47 1005.05 1005.08 1004.60 1004.44 1004.27 1002.91 1001.39 1000.64 1000.36 999.74 999.45 999.71 998.81 998.39 998.92
992.56 993.43 994.36 995.47 996.77 998.21 999.74 1000.56 1001.97 1002.98 1003.42 1004.20 1003.78 1003.62 1003.03 1002.72 1002.52 1002.62 1003.90 1004.71 1004.90 1005.56 1005.44 1006.48 1007.15 1007.44 1006.94 1007.25 1006.70 1005.73 1004.66 1004.19 1004.26 1003.83 1002.40 1001.64 1001.06 1000.27 999.66 999.80 999.35 998.88 998.24 998.31
990.81 992.02 993.23 994.44 995.79 997.08 999.16 999.77 1000.85 1002.12 1002.83 1003.43 1002.75 1002.24 1002.67 1002.32 1002.57 1002.50 1002.91 1003.39 1003.94 1004.54 1005.25 1005.93 1006.45 1006.71 1006.00 1006.41 1006.05 1006.10 1005.47 1004.92 1004.74 1004.06 1003.13 1002.18 1001.23 1000.48 999.55 999.44 999.43 999.69 999.13 998.94
989.33 990.93 992.43 993.90 995.29 996.78 998.91 1000.00 1000.99 1001.55 1002.27 1002.69 1002.53 1001.81 1001.62 1001.68 1001.95 1002.32 1002.68 1003.19 1003.75 1004.41 1005.24 1005.75 1006.01 1005.79 1005.80 1005.95 1005.94 1005.75 1005.14 1005.19 1005.42 1004.97 1004.51 1004.67 1003.08 1001.41 1000.45 1000.08 999.65 999.64 999.72 999.56
988.61 990.70 992.29 993.81 995.32 997.09 998.42 1000.14 1001.41 1001.45 1001.89 1002.30 1002.47 1001.97 1001.46 1001.60 1001.63 1002.12 1002.73 1003.17 1003.80 1004.32 1004.76 1005.20 1005.23 1005.03 1005.29 1006.42 1006.71 1006.52 1006.22 1006.05 1006.06 1005.66 1005.16 1004.20 1003.23 1002.19 1001.64 1000.64 1000.20 1000.30 1000.53 1001.09
989.94 991.15 992.61 994.08 995.86 997.21 998.49 999.24 999.59 1001.07 1001.72 1002.49 1002.55 1001.72 1001.33 1001.45 1001.93 1002.56 1002.97 1003.36 1003.94 1004.40 1004.83 1005.17 1005.24 1005.30 1005.41 1006.67 1007.30 1007.32 1007.15 1007.16 1006.86 1006.32 1005.98 1004.01 1004.23 1003.96 1002.96 1001.96 1002.10 1002.09 1002.53 1003.29
992.12 993.02 994.25 995.57 996.62 998.01 998.80 999.02 999.38 1000.58 1002.07 1002.78 1002.33 1001.32 1001.31 1001.59 1001.78 1002.78 1002.74 1003.35 1004.11 1004.42 1004.70 1005.32 1005.47 1005.87 1006.04 1007.55 1008.25 1008.29 1008.27 1007.96 1007.29 1007.03 1006.67 1005.91 1005.55 1004.93 1004.51 1004.06 1003.88 1003.72 1004.25 1005.20
994.45 995.22 996.06 997.01 997.93 998.67 999.30 999.70 1000.23 1000.87 1001.79 1002.47 1002.15 1001.42 1001.27 1001.54 1002.39 1002.75 1003.54 1003.77 1004.73 1005.17 1005.16 1005.41 1005.67 1006.59 1008.01 1009.37 1009.39 1009.47 1009.62 1009.53 1008.71 1007.65 1007.10 1006.55 1006.53 1006.28 1006.61 1006.12 1005.69 1005.98 1006.70 1007.19
995.85 996.61 997.45 998.56 998.79 999.27 999.76 1000.87 1001.26 1001.88 1002.04 1002.40 1001.97 1001.73 1001.75 1001.85 1002.37 1003.63 1004.47 1004.57 1005.30 1005.73 1005.65 1005.66 1006.52 1008.65 1010.19 1010.74 1010.75 1010.80 1010.50 1010.08 1009.30 1008.49 1007.98 1007.58 1007.87 1008.08 1008.49 1008.12 1008.14 1007.99 1008.38 1008.77
997.38 998.23 998.60 998.68 999.05 999.80 1000.46 1001.09 1001.55 1002.13 1002.33 1001.88 1001.88 1001.81 1001.87 1002.50 1003.02 1003.98 1004.35 1004.97 1005.48 1006.03 1006.25 1006.46 1008.13 1010.17 1011.37 1011.70 1011.73 1011.74 1011.30 1010.93 1010.56 1010.22 1009.67 1009.41 1009.14 1009.28 1009.58 1009.45 1010.07 1009.97 1010.18 1010.69
997.96 998.08 999.10 999.52 1000.56 1000.73 1001.24 1002.29 1002.30 1002.43 1002.94 1002.82 1002.81 1003.21 1003.31 1003.48 1003.26 1004.00 1004.87 1005.37 1005.98 1006.68 1007.10 1008.24 1010.48 1012.16 1012.56 1012.61 1012.58 1012.53 1012.20 1011.84 1011.52 1011.21 1010.69 1010.80 1010.17 1010.92 1011.07 1010.88 1011.44 1011.51 1011.98 1012.57
998.46 999.16 1000.78 1001.86 1003.46 1003.94 1004.45 1004.71 1004.72 1004.73 1004.66 1004.35 1003.83 1004.03 1003.97 1004.14 1004.11 1004.85 1005.27 1006.06 1007.06 1007.85 1009.41 1011.35 1012.79 1013.31 1013.48 1013.58 1013.54 1013.43 1013.29 1012.91 1012.70 1012.55 1012.25 1011.92 1011.77 1012.63 1012.59 1012.19 1012.79 1013.10 1013.27 1014.12
1000.67 1002.35 1004.78 1006.03 1007.58 1007.84 1007.87 1007.33 1006.62 1006.30 1005.81 1005.27 1004.78 1004.59 1004.70 1005.16 1005.34 1006.14 1006.83 1008.48 1008.88 1010.57 1012.16 1013.44 1014.23 1014.47 1014.62 1014.72 1014.72 1014.50 1014.27 1014.00 1013.86 1013.77 1013.41 1013.44 1013.90 1014.03 1014.10 1013.71 1014.29 1014.55 1014.63 1015.39
1003.91 1005.56 1008.41 1009.58 1009.87 1009.56 1009.04 1008.32 1007.64 1007.32 1006.69 1005.90 1005.34 1005.30 1005.65 1006.72 1007.47 1008.72 1009.55 1010.83 1012.59 1013.66 1014.77 1015.37 1015.57 1015.51 1015.43 1015.45 1015.47 1015.33 1015.25 1015.31 1015.03 1014.95 1015.13 1015.34 1015.41 1015.24 1015.28 1015.48 1016.18 1016.37 1016.44 1017.09
1007.13 1009.50 1010.80 1011.33 1011.25 1011.06 1010.39 1009.76 1009.13 1008.48 1007.74 1006.81 1006.59 1007.35 1008.41 1009.77 1010.63 1011.57 1013.10 1013.92 1015.44 1016.44 1016.77 1016.96 1016.82 1016.80 1016.72 1016.61 1016.53 1016.43 1016.43 1016.37 1016.30 1016.52 1016.66 1016.60 1016.65 1016.66 1017.14 1017.68 1017.96 1018.20 1018.12 1018.68
1010.10 1012.15 1012.51 1012.83 1012.75 1012.65 1011.97 1011.18 1010.42 1009.49 1008.76 1009.09 1009.40 1010.53 1011.93 1012.25 1013.43 1015.05 1015.90 1016.98 1017.52 1017.92 1018.21 1018.28 1018.15 1018.08 1018.08 1017.91 1017.81 1017.83 1017.72 1017.71 1017.74 1017.89 1018.07 1018.05 1018.12 1018.34 1018.81 1019.11 1019.87 1020.01 1020.25 1020.57
Wind_Speed
26 25 25 23 21 21 15 5 9 11 14 11 4 14 9 7 2 3 6 2 3 3 4 3 2 3 5 9 4 7 4 5 6 10 5 4 10 9 10 5 4 2 4 9
28 28 26 24 23 22 4 6 4 9 13 12 11 6 14 12 3 4 1 6 6 0 3 4 5 4 3 7 7 5 10 5 3 6 13 3 5 4 5 4 4 7 7 4
29 28 27 25 24 24 11 3 7 4 9 4 17 13 16 11 13 15 1 3 2 2 2 3 4 5 5 3 5 1 7 5 8 12 5 5 5 6 5 5 5 5 6 4
29 28 26 26 26 25 12 6 5 5 8 13 16 18 11 18 14 13 13 5 7 3 3 4 5 7 10 8 6 4 2 7 9 14 12 16 5 5 7 9 6 10 4 8
27 27 26 25 26 26 12 6 5 4 1 14 16 18 18 20 17 13 11 11 7 16 14 15 13 4 0 4 5 3 4 7 10 11 9 11 12 11 10 7 6 4 3 8
19 20 20 26 26 26 8 4 2 2 8 10 13 18 20 16 15 13 14 17 13 9 16 14 16 15 19 14 14 8 5 1 6 3 5 6 8 13 7 4 6 5 5 5
22 21 20 19 24 28 5 3 5 5 6 15 17 16 19 16 19 12 14 15 14 16 2 3 5 9 15 17 18 12 8 4 1 5 2 3 6 7 13 15 14 9 6 6
23 23 22 22 22 22 6 5 6 6 9 10 16 17 19 18 13 18 15 13 15 10 0 3 5 4 3 6 11 13 15 7 4 3 4 6 4 2 5 7 9 7 9 9
26 25 24 24 24 25 12 8 3 4 5 11 12 16 16 12 13 12 14 10 2 2 3 1 4 2 4 4 4 7 11 10 3 4 4 3 7 6 0 5 5 2 3 2
28 28 27 27 26 26 11 4 13 2 2 8 14 8 12 8 11 5 4 9 5 5 4 6 4 4 4 4 4 4 5 3 11 1 3 5 11 8 2 5 8 4 1 4
28 28 29 29 29 28 17 7 13 7 2 2 5 11 13 7 11 7 6 4 1 3 5 3 3 3 6 4 5 0 5 6 5 3 2 6 3 3 4 7 3 1 5 6
26 26 28 30 30 30 27 5 10 9 2 1 1 4 4 23 25 12 12 8 7 8 4 4 2 3 1 4 3 3 3 5 3 7 6 5 4 5 3 3 6 4 6 2
25 25 26 29 30 31 27 6 10 5 4 1 1 4 7 8 13 5 6 2 5 4 5 5 4 3 5 5 5 3 5 0 2 3 4 4 7 8 4 2 8 7 5 6
27 25 25 27 27 31 27 8 9 6 3 2 5 3 14 6 9 8 4 4 4 4 2 3 3 3 4 4 5 6 6 3 4 6 6 10 8 8 8 9 6 7 7 5
27 25 26 27 29 29 13 7 9 5 4 6 3 2 3 4 12 14 4 5 3 2 2 2 3 2 3 1 3 1 2 5 4 5 3 2 12 14 11 8 8 7 5 4
30 25 26 24 28 25 11 4 6 5 3 2 2 2 3 3 9 16 13 8 2 3 4 3 2 2 4 3 4 3 5 6 4 5 8 7 18 20 15 11 5 5 9 7
23 25 28 30 30 14 5 3 6 10 3 3 3 3 2 7 4 2 3 3 2 2 1 1 3 2 4 3 3 3 7 8 8 5 12 7 7 13 16 7 7 11 14 12
28 30 33 30 20 12 3 2 23 11 5 3 3 4 3 5 4 4 2 3 2 2 3 0 2 1 1 2 7 9 11 13 4 11 11 5 6 11 14 10 7 12 14 12
29 27 19 7 4 3 3 18 11 3 4 3 2 0 3 3 2 3 3 2 3 2 2 2 2 2 3 7 9 10 11 10 14 15 5 10 11 12 13 10 12 12 11 11
17 10 4 4 2 26 12 4 3 2 1 2 3 2 3 3 2 3 3 2 3 3 4 2 3 4 6 10 8 9 10 11 12 12 8 10 9 9 10 13 10 11 11 13
3 3 3 4 11 3 2 4 3 3 3 1 3 5 4 5 4 3 1 2 2 3 2 3 3 3 6 9 9 9 10 10 9 8 6 5 6 5 6 11 11 13 14 15
2 5 4 3 4 3 5 1 2 5 4 4 3 3 3 2 1 4 1 2 1 2 2 5 3 3 6 8 9 10 10 10 10 10 10 8 10 6 7 11 11 14 14 14
3 5 7 5 6 13 7 5 4 3 5 5 3 4 2 4 4 3 2 2 2 3 5 3 3 5 7 8 8 9 9 10 9 10 11 13 13 8 9 13 12 13 15 13
6 6 9 6 5 4 3 3 2 3 3 4 2 2 3 1 3 3 4 3 4 4 4 2 4 6 5 6 7 7 9 10 11 10 11 13 12 12 11 13 12 13 16 14
7 7 7 5 3 3 4 5 3 4 5 3 1 3 4 5 5 4 4 6 5 4 2 3 5 7 8 7 8 8 9 9 10 11 11 12 12 14 15 15 14 15 16 17
6 9 5 3 2 5 4 5 4 4 6 2 3 5 5 6 3 6 5 3 4 2 2 3 5 7 8 8 9 9 9 10 11 11 12 13 14 15 15 14 14 14 16 16
6 4 3 1 1 2 3 4 6 5 3 4 4 7 2 2 5 4 4 2 2 2 3 4 7 7 7 8 10 11 10 10 11 12 12 13 13 14 14 16 13 14 15 15
Wind_Direction
257 255 252 245 242 240 238 231 229 168 149 197 199 216 196 201 273 291 244 325 247 248 304 311 272 244 308 359 351 334 300 202 213 251 245 183 211 195 193 176 205 205 189 238
254 252 247 242 233 224 198 227 197 196 160 213 208 199 221 227 240 196 187 225 214 300 295 313 233 237 232 30 16 9 2 307 234 281 284 226 187 191 177 122 98 201 195 257
255 252 246 238 232 222 206 165 181 206 199 202 204 200 215 212 206 242 294 288 48 79 299 252 293 330 310 337 309 176 346 243 235 223 228 170 188 182 197 174 163 186 225 246
251 246 240 233 227 214 206 175 227 203 194 196 198 197 197 210 208 201 199 238 232 198 256 322 285 278 287 261 200 105 290 281 256 243 229 249 234 184 177 212 189 213 213 210
249 241 233 225 216 209 214 169 182 191 303 188 197 196 208 207 204 183 206 226 213 219 229 230 259 275 59 268 353 55 164 265 303 242 210 214 230 231 215 198 228 242 207 261
242 237 235 222 212 199 202 158 178 198 191 186 194 207 212 214 198 213 218 208 224 242 229 231 246 254 266 262 277 282 255 269 303 245 171 140 259 221 222 219 200 155 201 217
243 238 231 225 215 201 202 167 148 205 209 202 205 199 205 210 205 198 207 220 213 238 100 279 281 257 255 257 257 248 267 355 265 279 87 172 265 202 227 239 254 236 222 241
239 235 228 219 207 210 225 154 191 186 223 203 204 202 197 201 206 213 216 216 225 261 309 189 263 280 249 245 219 234 218 205 273 329 327 287 311 209 202 176 256 225 211 230
237 230 224 219 211 207 203 215 278 193 202 208 186 189 183 186 199 206 226 235 218 197 117 223 224 263 251 232 226 247 197 198 175 238 134 290 254 309 333 133 288 308 172 181
234 227 221 215 210 206 193 193 197 276 220 165 169 188 181 159 175 198 153 209 218 155 188 205 205 221 254 286 285 155 142 167 213 191 265 262 259 310 0 127 235 203 117 294
233 224 219 214 205 202 194 187 177 189 229 147 195 172 163 161 180 167 153 96 186 142 192 210 207 171 219 216 285 108 187 156 196 178 207 277 303 262 127 247 256 359 31 8
224 219 216 206 200 196 187 185 166 171 229 30 43 311 265 182 183 171 169 187 164 170 159 182 166 197 101 171 218 260 266 189 174 183 220 259 223 262 226 169 279 215 130 234
217 214 205 198 193 190 186 148 149 152 147 328 207 228 261 248 207 164 155 262 171 180 187 163 193 203 134 155 227 271 310 45 225 24 309 273 289 301 276 209 234 248 237 192
207 197 191 191 185 181 179 165 158 134 108 170 268 186 216 230 219 196 172 155 134 123 140 141 149 168 163 195 200 161 210 354 325 271 323 328 294 265 254 256 269 292 298 299
190 181 179 177 177 173 149 138 157 161 142 175 212 138 190 177 202 210 171 176 144 139 135 106 206 160 129 37 62 299 204 179 151 228 287 244 272 290 321 263 243 239 252 334
157 165 166 161 159 140 122 111 192 165 104 97 169 303 192 140 181 197 209 219 120 137 150 201 211 256 125 143 187 29 23 360 342 301 304 247 268 274 313 271 225 86 74 47
129 141 140 141 137 135 117 164 154 137 110 90 236 157 211 112 92 85 91 79 124 164 129 312 175 218 109 98 187 9 344 337 313 360 307 360 22 315 332 31 65 67 73 56
109 116 115 120 111 100 56 12 144 124 85 67 270 136 152 154 124 164 147 87 103 9 138 33 199 81 111 171 20 3 358 334 329 350 328 304 331 11 5 19 44 54 52 48
96 106 96 80 61 77 70 116 77 58 110 185 221 79 124 85 157 113 62 77 85 335 148 203 116 133 63 14 359 355 347 337 319 321 345 16 27 26 11 22 48 64 63 65
57 41 38 66 294 112 112 75 102 118 220 55 227 245 107 78 68 68 88 32 119 163 219 128 68 86 74 14 3 347 339 333 341 338 336 13 15 35 26 38 49 73 76 78
35 61 53 52 39 85 166 110 144 152 207 256 43 33 83 7 96 123 57 160 135 109 246 152 77 75 4 353 358 357 353 352 354 344 23 35 54 42 67 65 63 72 76 81
206 114 131 86 34 46 97 61 30 35 36 19 47 33 74 17 39 92 52 107 99 140 42 70 70 34 13 354 4 6 4 5 15 19 34 33 55 55 102 98 92 86 88 87
38 43 44 27 335 40 36 24 16 35 353 356 17 57 94 27 27 74 115 118 87 71 50 71 51 9 14 4 4 15 18 35 47 48 55 59 61 58 88 91 87 94 89 88
64 52 38 60 9 47 25 337 0 22 338 340 332 78 70 21 62 5 70 30 46 67 60 72 20 24 26 28 22 30 31 37 46 49 58 66 72 70 65 73 78 87 86 85
55 41 47 46 352 357 325 321 0 345 313 316 26 69 54 21 64 29 56 42 61 42 60 24 13 24 33 32 38 43 45 44 51 55 64 69 71 75 70 67 77 81 85 84
58 43 32 339 37 346 352 353 353 335 330 280 21 54 60 39 52 49 14 61 48 39 32 355 26 35 35 39 40 47 53 54 60 63 68 70 69 70 74 70 66 68 74 76
49 37 23 354 90 268 315 328 335 315 345 51 37 55 42 28 52 50 24 72 59 48 37 31 31 42 47 57 55 45 47 60 65 67 66 70 72 73 71 72 69 73 73 77